DLH4JV EDDF-EDDS

Flight info

Callsign DLH4JV
Flight time 0h 32m
Altitude 13000
Route ANEKI2L/18 ANEKI Y163 NEKLO Y171 INKAM N850 KRH T128 BADSO BADSO2A
Aircraft A20N/M-SDE2E3FGHIRWXY/LB1

Departure

Time 2026-05-05 20:01
Airport Frankfurt Main Airport (EDDF)

Arrival

Time 2026-05-05 20:34
Airport Stuttgart Airport (EDDS)
Time Latitude Longitude Altitude Speed Heading
2026-05-05 19:29 50.04753 8.56878 366 ft 0 kts 295°
2026-05-05 19:49 50.04752 8.56884 362 ft 3 kts 295°
2026-05-05 19:49 50.04741 8.56922 363 ft 4 kts 290°
2026-05-05 19:50 50.04733 8.56962 361 ft 4 kts 272°
2026-05-05 19:50 50.04738 8.56995 364 ft 2 kts 206°
2026-05-05 19:50 50.04740 8.56996 361 ft 0 kts 205°
2026-05-05 19:52 50.04720 8.56982 364 ft 7 kts 204°
2026-05-05 19:52 50.04655 8.56937 361 ft 12 kts 204°
2026-05-05 19:52 50.04563 8.56896 364 ft 15 kts 192°
2026-05-05 19:53 50.04459 8.56834 364 ft 17 kts 226°
2026-05-05 19:53 50.04413 8.56664 361 ft 18 kts 246°
2026-05-05 19:53 50.04368 8.56479 365 ft 18 kts 250°
2026-05-05 19:53 50.04343 8.56376 364 ft 1 kts 249°
2026-05-05 19:54 50.04343 8.56373 364 ft 0 kts 249°
2026-05-05 19:55 50.04340 8.56361 365 ft 4 kts 249°
2026-05-05 19:55 50.04318 8.56269 364 ft 15 kts 249°
2026-05-05 19:55 50.04274 8.56085 362 ft 20 kts 250°
2026-05-05 19:56 50.04221 8.55865 366 ft 23 kts 249°
2026-05-05 19:56 50.04164 8.55626 363 ft 25 kts 250°
2026-05-05 19:56 50.04103 8.55369 369 ft 26 kts 249°
2026-05-05 19:56 50.04038 8.55099 374 ft 27 kts 250°
2026-05-05 19:57 50.03971 8.54818 371 ft 27 kts 249°
2026-05-05 19:57 50.03904 8.54535 370 ft 28 kts 249°
2026-05-05 19:57 50.03827 8.54296 367 ft 25 kts 235°
2026-05-05 19:57 50.03757 8.54041 371 ft 26 kts 250°
2026-05-05 19:58 50.03691 8.53768 373 ft 28 kts 248°
2026-05-05 19:58 50.03620 8.53484 372 ft 29 kts 248°
2026-05-05 19:58 50.03550 8.53189 367 ft 29 kts 248°
2026-05-05 19:58 50.03479 8.52891 367 ft 30 kts 247°
2026-05-05 19:59 50.03443 8.52768 371 ft 10 kts 247°
2026-05-05 19:59 50.03416 8.52661 374 ft 11 kts 248°
2026-05-05 19:59 50.03354 8.52594 369 ft 6 kts 180°
2026-05-05 19:59 50.03353 8.52594 369 ft 0 kts 180°
2026-05-05 20:00 50.03350 8.52594 369 ft 2 kts 180°
2026-05-05 20:00 50.03196 8.52595 367 ft 55 kts 179°
2026-05-05 20:00 50.02588 8.52603 370 ft 116 kts 179°
2026-05-05 20:01 50.01620 8.52613 390 ft 159 kts 179°
2026-05-05 20:01 50.00481 8.52616 822 ft 168 kts 180°
2026-05-05 20:01 49.99270 8.52617 1318 ft 179 kts 181°
2026-05-05 20:01 49.98000 8.52638 1839 ft 188 kts 182°
2026-05-05 20:02 49.96625 8.52708 2188 ft 209 kts 178°
2026-05-05 20:02 49.95108 8.52887 2631 ft 223 kts 178°
2026-05-05 20:02 49.93554 8.53069 3309 ft 225 kts 178°
2026-05-05 20:02 49.91979 8.53221 3809 ft 229 kts 179°
2026-05-05 20:03 49.90393 8.53348 3972 ft 228 kts 180°
2026-05-05 20:03 49.88796 8.53460 4145 ft 231 kts 180°
2026-05-05 20:03 49.87115 8.53571 4435 ft 254 kts 180°
2026-05-05 20:03 49.85320 8.53691 5286 ft 261 kts 180°
2026-05-05 20:04 49.83491 8.53815 6340 ft 265 kts 180°
2026-05-05 20:04 49.81633 8.53942 7318 ft 269 kts 180°
2026-05-05 20:04 49.79761 8.54068 8310 ft 273 kts 180°
2026-05-05 20:04 49.77845 8.54197 9310 ft 278 kts 179°
2026-05-05 20:05 49.75898 8.54327 10198 ft 285 kts 179°
2026-05-05 20:05 49.73847 8.54461 10627 ft 308 kts 179°
2026-05-05 20:05 49.71621 8.54605 10998 ft 330 kts 179°
2026-05-05 20:05 49.69302 8.54760 11779 ft 336 kts 179°
2026-05-05 20:06 49.66944 8.54919 12450 ft 341 kts 179°
2026-05-05 20:06 49.64562 8.55081 12721 ft 342 kts 180°
2026-05-05 20:06 49.62171 8.55243 12822 ft 354 kts 180°
2026-05-05 20:06 49.59621 8.55406 12830 ft 375 kts 180°
2026-05-05 20:07 49.57059 8.55577 12827 ft 357 kts 180°
2026-05-05 20:07 49.54668 8.55742 12827 ft 338 kts 180°
2026-05-05 20:07 49.52312 8.55900 12830 ft 342 kts 180°
2026-05-05 20:07 49.49931 8.56055 12829 ft 341 kts 180°
2026-05-05 20:08 49.47559 8.56210 12828 ft 341 kts 180°
2026-05-05 20:08 49.45193 8.56365 12829 ft 341 kts 180°
2026-05-05 20:08 49.42778 8.56521 12824 ft 360 kts 180°
2026-05-05 20:08 49.40179 8.56686 12831 ft 387 kts 180°
2026-05-05 20:09 49.37449 8.56861 12829 ft 408 kts 180°
2026-05-05 20:09 49.34587 8.57050 12826 ft 411 kts 180°
2026-05-05 20:09 49.31719 8.57243 12826 ft 412 kts 180°
2026-05-05 20:09 49.28855 8.57435 12825 ft 412 kts 180°
2026-05-05 20:10 49.25992 8.57625 12824 ft 412 kts 180°
2026-05-05 20:10 49.23127 8.57813 12824 ft 412 kts 180°
2026-05-05 20:10 49.20270 8.58000 12814 ft 412 kts 180°
2026-05-05 20:10 49.17412 8.58187 12820 ft 409 kts 180°
2026-05-05 20:11 49.14639 8.58371 12817 ft 387 kts 180°
2026-05-05 20:11 49.12030 8.58545 12814 ft 364 kts 180°
2026-05-05 20:11 49.09575 8.58708 12824 ft 343 kts 180°
2026-05-05 20:11 49.07257 8.58857 12826 ft 339 kts 180°
2026-05-05 20:12 49.04883 8.59004 12826 ft 342 kts 180°
2026-05-05 20:12 49.02482 8.59155 12825 ft 341 kts 180°
2026-05-05 20:12 49.00110 8.59305 12827 ft 341 kts 180°
2026-05-05 20:12 48.97773 8.59455 12826 ft 341 kts 180°
2026-05-05 20:13 48.95408 8.59608 12826 ft 340 kts 180°
2026-05-05 20:13 48.93038 8.59761 12826 ft 340 kts 180°
2026-05-05 20:13 48.90672 8.59914 12829 ft 341 kts 180°
2026-05-05 20:13 48.88305 8.60066 12831 ft 340 kts 180°
2026-05-05 20:14 48.85909 8.60221 12832 ft 341 kts 180°
2026-05-05 20:14 48.83567 8.60371 12838 ft 341 kts 180°
2026-05-05 20:14 48.81214 8.60880 12841 ft 344 kts 168°
2026-05-05 20:14 48.78922 8.61974 12835 ft 347 kts 163°
2026-05-05 20:15 48.76654 8.63255 12835 ft 347 kts 162°
2026-05-05 20:15 48.74414 8.64556 12839 ft 346 kts 162°
2026-05-05 20:15 48.72154 8.65848 12841 ft 346 kts 163°
2026-05-05 20:15 48.69896 8.67111 12843 ft 346 kts 163°
2026-05-05 20:16 48.67749 8.68759 12843 ft 353 kts 146°
2026-05-05 20:16 48.66082 8.71493 12831 ft 361 kts 125°
2026-05-05 20:16 48.65142 8.75030 12838 ft 366 kts 103°
2026-05-05 20:16 48.65073 8.78894 12847 ft 372 kts 83°
2026-05-05 20:17 48.65803 8.82640 12847 ft 373 kts 69°
2026-05-05 20:17 48.66767 8.86274 12756 ft 370 kts 68°
2026-05-05 20:17 48.67734 8.89799 12592 ft 353 kts 68°
2026-05-05 20:17 48.68644 8.93139 12408 ft 335 kts 68°
2026-05-05 20:18 48.69504 8.96340 12186 ft 324 kts 69°
2026-05-05 20:18 48.70340 8.99489 11788 ft 322 kts 69°
2026-05-05 20:18 48.71166 9.02627 11388 ft 320 kts 69°
2026-05-05 20:18 48.71986 9.05753 10987 ft 319 kts 69°
2026-05-05 20:19 48.72536 9.07856 10750 ft 317 kts 69°
2026-05-05 20:19 48.73343 9.10947 10375 ft 315 kts 69°
2026-05-05 20:19 48.74134 9.13979 10030 ft 312 kts 69°
2026-05-05 20:19 48.74918 9.16984 9891 ft 301 kts 69°
2026-05-05 20:20 48.75668 9.19858 9847 ft 286 kts 69°
2026-05-05 20:20 48.76385 9.22613 9855 ft 282 kts 69°
2026-05-05 20:20 48.77106 9.25383 9832 ft 282 kts 69°
2026-05-05 20:20 48.77835 9.28186 9855 ft 282 kts 69°
2026-05-05 20:21 48.78553 9.30960 9854 ft 282 kts 69°
2026-05-05 20:21 48.79267 9.33719 9855 ft 283 kts 69°
2026-05-05 20:21 48.79978 9.36468 9846 ft 282 kts 69°
2026-05-05 20:21 48.80704 9.39272 9836 ft 283 kts 69°
2026-05-05 20:22 48.81321 9.42094 9797 ft 280 kts 76°
2026-05-05 20:22 48.81840 9.44930 9589 ft 277 kts 76°
2026-05-05 20:22 48.82348 9.47664 9418 ft 262 kts 75°
2026-05-05 20:22 48.82834 9.50271 9094 ft 254 kts 75°
2026-05-05 20:23 48.83308 9.52817 8610 ft 250 kts 75°
2026-05-05 20:23 48.83778 9.55355 8199 ft 244 kts 75°
2026-05-05 20:23 48.84241 9.57864 8195 ft 251 kts 75°
2026-05-05 20:23 48.84713 9.60420 8394 ft 252 kts 75°
2026-05-05 20:24 48.85186 9.62982 8563 ft 253 kts 75°
2026-05-05 20:24 48.85627 9.65568 8714 ft 253 kts 84°
2026-05-05 20:24 48.85451 9.68165 8627 ft 243 kts 117°
2026-05-05 20:24 48.84533 9.70106 8517 ft 214 kts 149°
2026-05-05 20:25 48.83322 9.71139 8369 ft 192 kts 163°
2026-05-05 20:25 48.82117 9.71943 8070 ft 185 kts 173°
2026-05-05 20:25 48.80912 9.71865 7689 ft 170 kts 208°
2026-05-05 20:25 48.80024 9.70767 7338 ft 164 kts 235°
2026-05-05 20:26 48.79338 9.69387 7021 ft 163 kts 234°
2026-05-05 20:26 48.78639 9.68022 6707 ft 163 kts 234°
2026-05-05 20:26 48.77943 9.66672 6390 ft 162 kts 235°
2026-05-05 20:26 48.77367 9.65250 6289 ft 161 kts 246°
2026-05-05 20:27 48.76950 9.63653 6216 ft 162 kts 251°
2026-05-05 20:27 48.76611 9.62015 6076 ft 164 kts 253°
2026-05-05 20:27 48.76289 9.60357 5893 ft 162 kts 253°
2026-05-05 20:27 48.75971 9.58711 5708 ft 164 kts 253°
2026-05-05 20:28 48.75647 9.57033 5523 ft 177 kts 254°
2026-05-05 20:28 48.75280 9.55127 5303 ft 195 kts 253°
2026-05-05 20:28 48.74902 9.53163 5040 ft 192 kts 253°
2026-05-05 20:28 48.74531 9.51234 4807 ft 191 kts 253°
2026-05-05 20:29 48.74157 9.49284 4547 ft 193 kts 253°
2026-05-05 20:29 48.73783 9.47339 4286 ft 194 kts 253°
2026-05-05 20:29 48.73409 9.45390 4009 ft 188 kts 253°
2026-05-05 20:29 48.73059 9.43556 3764 ft 173 kts 252°
2026-05-05 20:30 48.72745 9.41925 3547 ft 152 kts 253°
2026-05-05 20:30 48.72471 9.40485 3377 ft 134 kts 252°
2026-05-05 20:30 48.72222 9.39186 3206 ft 129 kts 252°
2026-05-05 20:30 48.71971 9.37879 3028 ft 128 kts 252°
2026-05-05 20:31 48.71724 9.36581 2874 ft 129 kts 252°
2026-05-05 20:31 48.71473 9.35271 2702 ft 129 kts 252°
2026-05-05 20:31 48.71224 9.33962 2525 ft 130 kts 253°
2026-05-05 20:31 48.70969 9.32631 2386 ft 131 kts 250°
2026-05-05 20:32 48.70694 9.31299 2162 ft 135 kts 251°
2026-05-05 20:32 48.70437 9.29906 1993 ft 140 kts 253°
2026-05-05 20:32 48.70172 9.28482 1784 ft 141 kts 252°
2026-05-05 20:32 48.69914 9.27083 1647 ft 136 kts 252°
2026-05-05 20:33 48.69644 9.25680 1475 ft 138 kts 252°
2026-05-05 20:33 48.69386 9.24302 1332 ft 136 kts 253°
2026-05-05 20:33 48.69145 9.23020 1289 ft 99 kts 254°
2026-05-05 20:33 48.69002 9.22271 1286 ft 65 kts 254°
2026-05-05 20:34 48.68886 9.21660 1288 ft 54 kts 250°
2026-05-05 20:34 48.68815 9.21219 1286 ft 15 kts 268°
2026-05-05 20:34 48.68822 9.21055 1288 ft 17 kts 279°
2026-05-05 20:34 48.68840 9.20959 1286 ft 1 kts 288°
2026-05-05 20:35 48.68843 9.20943 1287 ft 2 kts 283°
2026-05-05 20:35 48.68843 9.20941 1287 ft 0 kts 283°
2026-05-05 20:35 48.68845 9.20927 1285 ft 4 kts 282°
2026-05-05 20:36 48.68856 9.20860 1286 ft 9 kts 283°
2026-05-05 20:36 48.68882 9.20758 1287 ft 12 kts 305°
2026-05-05 20:36 48.68916 9.20699 1288 ft 0 kts 312°
2026-05-05 20:36 48.68927 9.20680 1285 ft 5 kts 312°
2026-05-05 20:37 48.68944 9.20614 1285 ft 9 kts 270°
2026-05-05 20:37 48.68927 9.20506 1287 ft 13 kts 255°
2026-05-05 20:37 48.68897 9.20350 1285 ft 17 kts 254°
2026-05-05 20:37 48.68861 9.20165 1285 ft 19 kts 253°
2026-05-05 20:38 48.68825 9.19966 1286 ft 18 kts 258°
2026-05-05 20:38 48.68876 9.19867 1287 ft 11 kts 321°
2026-05-05 20:38 48.68874 9.19748 1289 ft 13 kts 254°
2026-05-05 20:38 48.68848 9.19608 1288 ft 15 kts 253°
2026-05-05 20:39 48.68816 9.19444 1287 ft 14 kts 253°
2026-05-05 20:39 48.68812 9.19420 1287 ft 5 kts 253°
2026-05-05 20:39 48.68827 9.19386 1287 ft 4 kts 343°
2026-05-05 20:39 48.68864 9.19368 1289 ft 4 kts 343°
2026-05-05 20:40 48.68880 9.19361 1286 ft 2 kts 343°
2026-05-05 20:40 48.68881 9.19361 1286 ft 0 kts 343°